📊 Raw Sensor Data
Showing records 33426 to 33450 of 84,774 total
| ID | Distance (ft) | Battery V | Battery A | Int Temp (°F) | Int Humid (%) | Ext Temp (°F) | Solar V | RSSI | SNR | Time Stamp |
|---|---|---|---|---|---|---|---|---|---|---|
| 51361 | 14.9 | 4.00 | -5 | 63 | 45 | 64 | 0.10 | -74 | 8 | 09/07/2025 10:45 PM |
| 51360 | 14.9 | 3.95 | -5 | 63 | 46 | 64 | 0.10 | -72 | 8 | 09/07/2025 10:30 PM |
| 51359 | 14.9 | 3.95 | -5 | 64 | 46 | 65 | 0.10 | -72 | 8 | 09/07/2025 10:15 PM |
| 51358 | 14.9 | 3.95 | -5 | 65 | 46 | 65 | 0.00 | -73 | 8 | 09/07/2025 10:00 PM |
| 51357 | 14.9 | 3.95 | -5 | 65 | 46 | 66 | 0.00 | -72 | 8 | 09/07/2025 09:45 PM |
| 51356 | 14.9 | 3.95 | -5 | 66 | 47 | 66 | 0.00 | -74 | 8 | 09/07/2025 09:30 PM |
| 51355 | 14.9 | 4.01 | -5 | 67 | 47 | 67 | 0.00 | -73 | 8 | 09/07/2025 09:15 PM |
| 51354 | 14.9 | 4.01 | -5 | 68 | 48 | 69 | 0.00 | -72 | 8 | 09/07/2025 09:00 PM |
| 51353 | 14.9 | 3.95 | -5 | 68 | 49 | 69 | 0.00 | -73 | 8 | 09/07/2025 08:45 PM |
| 51352 | 14.9 | 3.95 | -5 | 69 | 50 | 69 | 0.00 | -73 | 8 | 09/07/2025 08:30 PM |
| 51351 | 14.9 | 4.01 | -5 | 70 | 51 | 70 | 0.00 | -72 | 7 | 09/07/2025 08:15 PM |
| 51350 | 14.9 | 3.95 | -5 | 72 | 53 | 71 | 0.00 | -72 | 8 | 09/07/2025 08:00 PM |
| 51349 | 14.9 | 4.01 | -5 | 74 | 55 | 72 | 0.00 | -72 | 8 | 09/07/2025 07:45 PM |
| 51348 | 14.9 | 3.95 | -9 | 77 | 56 | 73 | 3.30 | -72 | 6 | 09/07/2025 07:30 PM |
| 51347 | 15.0 | 3.96 | 0 | 82 | 55 | 77 | 4.50 | -73 | 8 | 09/07/2025 07:15 PM |
| 51346 | 15.0 | 3.97 | 0 | 88 | 53 | 81 | 4.60 | -73 | 8 | 09/07/2025 07:00 PM |
| 51345 | 15.0 | 4.06 | 0 | 92 | 51 | 84 | 4.60 | -72 | 7 | 09/07/2025 06:45 PM |
| 51344 | 15.0 | 4.05 | 29 | 94 | 50 | 87 | 4.50 | -73 | 8 | 09/07/2025 06:30 PM |
| 51343 | 15.1 | 4.01 | 0 | 97 | 49 | 87 | 5.10 | -74 | 7 | 09/07/2025 06:00 PM |
| 51342 | 15.1 | 4.11 | 0 | 100 | 47 | 89 | 5.10 | -74 | 7 | 09/07/2025 05:45 PM |
| 51341 | 15.2 | 4.00 | 5 | 101 | 46 | 91 | 5.10 | -73 | 7 | 09/07/2025 05:30 PM |
| 51340 | 15.2 | 4.00 | 5 | 100 | 47 | 89 | 5.10 | -73 | 8 | 09/07/2025 05:15 PM |
| 51339 | 15.2 | 4.12 | 5 | 100 | 47 | 89 | 5.10 | -72 | 8 | 09/07/2025 05:00 PM |
| 51338 | 15.2 | 4.00 | 0 | 102 | 46 | 90 | 5.10 | -73 | 8 | 09/07/2025 04:45 PM |
| 51337 | 15.2 | 4.02 | 5 | 103 | 45 | 90 | 5.10 | -73 | 7 | 09/07/2025 04:30 PM |